www.pogodaiklimat.ru

Погода и климат >> Архив погоды >> Россия >> Амурская область >> Лопча


ПОГОДА в Лопче

  • Прогноз погоды в Лопче
  • Монитор погоды в Лопче

АРХИВ ПОГОДЫ в Лопче

Время (UTC), дата Ветер
(напр.,м/с)
 
Видим.   Явления Облачность Т
(С)
Тd
(С)
f
(%)
Тe
(С)
Тes
(С)
Комфортность P
(гПа)
Po
(гПа)
Тmin
(С)
Tmax
(С)
R
(мм)
R24
(мм)
S
(см)
03 10.09 штиль 0 50 км 10/6 600 м
[Cb cap Ac lent]
+9.3 +3.7 68 +9 +9 1020.4 952.0
06 10.09 ЮЗ 2 50 км 9/9 600 м
[Cb cap]
+15.7 +9.6 67 +16 +16 1017.4 950.7
09 10.09 штиль 0 50 км {ливн. осадки} 8/0
[Ac lent Cc]
+11.4 +7.5 77 +11 +11 1018.4 950.7
12 10.09 СВ 1 50 км {ливн. осадки} 4/0
[Ac trans]
+6.7 +4.4 85 +6 +6 1018.7 949.8 +15.7 0.4
15 10.09 штиль 0 50 км ясно +3.5 +3.1 97 +2 +2 1020.5 950.7
18 10.09 штиль 0 20 км ясно +1.2 +0.9 98 -0 -0 1021.1 950.7
21 10.09 штиль 0 10 км ясно +1.4 +0.8 96 0 0 1019.6 949.3
00 11.09 ЮВ 1 50 км в посл. час туман 4/0
[Cc]
+1.6 +0.5 92 -0 +3 1018.2 948.2 +0.8
03 11.09 СЗ 1 50 км 10/6 600 м
[Cb cap As op]
+10.8 +4.9 67 +11 +11 1015.7 948.0
06 11.09 В 1 10 км слаб. ливневой дождь 10/8 600 м
[Cb cap Ac As]
+11.2 +9.5 89 +11 +11 1014.2 946.7
09 11.09 Ю 1 50 км в посл. час ливневой дождь 8/3 1000 м
[Sc Ac As Ci sp]
+14.8 +9.2 69 +15 +16 1011.8 945.3
12 11.09 СВ 1 50 км {ливн. осадки} 10/0
[Cs]
+7.4 +5.8 90 +6 +6 1013.0 944.7 +14.9 2
15 11.09 штиль 0 50 км 8/0
[Cc]
+5.2 +4.8 97 +4 +4 1015.7 946.7
18 11.09 штиль 0 50 км 7 баллов +3.9 +3.5 97 +3 +3 1014.6 945.3
21 11.09 СВ 1 50 км в посл. час туман 10/0
[Ac trans Cs]
+2.8 +2.5 98 +1 +1 1013.5 944.0
00 12.09 З 1 20 км {туман} 9/3 1000 м
[Sc Ac cast Ci fib]
+6.8 +5.5 91 +6 +7 1008.6 940.5 +2.7
03 12.09 ЮВ 1 50 км 9 баллов +19.0 +12.7 67 +21 +22 комфорт 1002.2 937.3
06 12.09 ЮВ 3 50 км 10/8 600 м
[Cb cap As trans]
+21.4 +16.4 73 +25 +25 комфорт 997.3 933.3
09 12.09 ЮВ 1 10 км слаб. ливневой дождь 10/10 600 м
[Cb cap]
+15.8 +13.1 84 +16 +16 997.2 932.0
12 12.09 Ю 1 10 км слаб. ливневой дождь 10/10 600 м
[Cb cap]
+13.7 +13.2 97 +14 +14 997.2 931.5 +22.5 4
15 12.09 СЗ 1 2000 м ливневой дождь 10/10 600 м
[Cb cap]
+10.2 +9.6 96 +10 +10 998.6 932.0
18 12.09 С 2 10 км слаб. ливневой дождь 10/10 600 м
[Cb cap]
+6.5 +5.6 94 +4 +4 998.7 931.2
21 12.09 С 1 4000 м ливневой дождь 10/10 600 м
[Cb cap]
+5.6 +4.7 94 +4 +4 999.6 931.8
00 13.09 СЗ 1 10 км слаб. ливневой дождь 10/10 600 м
[Cb cap]
+5.9 +5.0 94 +5 +5 1001.0 933.2 +5.6 29
03 13.09 СЗ 1 50 км {ливн. осадки} 10/5 600 м
[Cb cap Ac As]
+7.4 +4.2 80 +7 +7 1003.7 936.0
06 13.09 СЗ 3 50 км {ливн. осадки} 8/3 1000 м
[Cu Sc Ci fib]
+11.3 +6.4 72 +10 +11 1004.1 937.3
09 13.09 штиль 0 50 км 9/8 600 м
[St Ac As]
+10.3 +6.6 78 +10 +10 1005.9 938.7
12 13.09 С 1 50 км 8/3 1000 м
[Sc Ac As]
+5.6 +1.6 75 +5 +5 1007.4 939.0 +12.6 0.0
15 13.09 С 1 50 км ясно +1.3 -2.3 77 -0 -0 1011.1 941.3
18 13.09 штиль 0 50 км ясно -1.7 -2.8 92 -3 -3 1011.9 941.3
21 13.09 штиль 0 50 км 6/0
[Ac As]
-2.4 -3.7 91 -4 -4 1012.1 941.3
00 14.09 штиль 0 50 км 9/8 600 м
[Cb cap Cc]
-0.3 -1.5 92 -2 -1 1010.3 940.3 -3.2
03 14.09 ЮЗ 1 50 км ясно +8.7 -1.1 50 +9 +17 1007.8 940.0
06 14.09 ЮЗ 2 50 км 8/5 1000 м
[Cu hum Ci sp]
+14.1 -2.3 32 +14 +16 1003.6 937.3
09 14.09 штиль 0 50 км 10/3 600 м
[Cb cap Cc]
+12.4 -1.2 39 +12 +12 1002.6 936.0
12 14.09 Ю 2 50 км 10/4 1000 м
[Sc As op]
+9.3 -2.3 44 +8 +8 1002.8 935.5 +14.4
15 14.09 В 1 50 км {ливн. осадки} 5/0
[Ac As]
+5.7 +3.4 85 +5 +5 1004.2 936.0
18 14.09 штиль 0 50 км {ливн. осадки} 10/8 600 м
[Cb cap Ac As]
+5.7 +3.9 88 +5 +5 1001.3 933.3
21 14.09 СВ 1 50 км 8/3 1000 м
[Sc Cc]
+4.8 +1.8 81 +4 +4 1000.1 932.0
00 15.09 Ю 1 50 км 10/6 600 м
[Cb cap Ac As]
+6.6 +3.0 78 +6 +6 998.0 930.5 +4.6 1
03 15.09 ЮВ 1 50 км 10/8 600 м
[Cb cap As trans]
+7.4 +1.9 68 +7 +7 998.1 930.7
06 15.09 штиль 0 500 м ливневой снег 10/10 600 м
[Cb cap]
+0.6 0.0 96 -1 -1 1001.2 932.0
09 15.09 С 2 2000 м слаб. ливневой снег 10/10 600 м
[Cb cap]
+0.5 -0.1 96 -3 -3 1002.6 933.3
12 15.09 З 2 50 км {ливн. осадки} 10/10 600 м
[Cb cap]
+0.8 -3.8 71 -2 -2 1003.9 934.6 +8.3 12
15 15.09 СЗ 1 50 км 10 баллов +0.7 -2.9 77 -1 -1 1006.9 937.3
18 15.09 З 1 50 км 10 баллов -0.4 -1.5 92 -3 -3 1008.7 938.7
21 15.09 С 1 50 км 7 баллов -1.6 -3.0 90 -4 -4 1010.4 940.0
00 16.09 СЗ 1 50 км 3/0
[Ac trans]
+1.0 -0.1 92 -1 +1 1009.6 939.9 -2.0 1
03 16.09 СЗ 1 50 км 9 баллов +4.8 +0.4 73 +4 +5 1010.1 941.3
06 16.09 СЗ 1 50 км 10 баллов +5.6 -1.8 59 +5 +5 1009.9 941.3
09 16.09 З 2 50 км 7 баллов +6.2 -4.6 46 +5 +5 1011.3 942.7
12 16.09 штиль 0 50 км 5/3 1000 м
[Sc Ci fib]
+0.7 -2.6 79 -0 -0 1012.8 942.9 +6.6
15 16.09 штиль 0 50 км 9 баллов -0.3 -1.7 90 -2 -2 1014.4 944.0
18 16.09 штиль 0 50 км 6 баллов -2.4 -3.7 91 -4 -4 1015.0 944.0
21 16.09 штиль 0 50 км 7 баллов -3.2 -4.3 92 -4 -4 1016.6 945.3
00 17.09 штиль 0 50 км 5/0
[Ci fib]
-2.5 -4.7 85 -4 -1 1017.0 945.9 -3.7

 

Местоположение метеостанции Лопча (Амурская область, Россия): широта 55.77 долгота 122.70 высота над уровнем моря 579 м.

В архиве по умолчанию представлена погода в Лопче за последнюю неделю. Архивные данные за месяц целиком и за предыдущие месяцы, начиная с января 2011 года, Вы можете получить, выбрав интересующий диапазон дат из раскрывающегося списка и нажав кнопку "Ввод!".


*Определитесь, кто Вы:
робот инопланетянин человек

Внимание! Время в таблицах - всемирное. Для получения местного времени необходимо прибавить поправку, которая равна 9 ч.

Смотрите также архив погоды в соседних городах и на ближайших метеорологических станциях:

Погода в Усть-Нюкже (Амурская область, Россия) (117 км)
Погода в Нагорном (Якутия, Россия) (133 км)
Погода в Тынде (Амурская область, Россия) (137 км)
Погода в Средней Олекме (Забайкальский край, Россия) (143 км)
Погода в Нерюнгри (Якутия, Россия) (178 км)
Погода в Ерофей Павловиче (Амурская область, Россия) (207 км)
Погода в Сковородино (Амурская область, Россия) (211 км)
Погода в Тупике (Забайкальский край, Россия) (232 км)
Погода в Амазаре (Забайкальский край, Россия) (244 км)
Погода в Игнасино (Амурская область, Россия) (257 км)

Пояснения к столбцам:

Ветер - указаны скорость ветра в м/с - средняя за 10 мин, порывы в срок и между сроками (в фигурных скобках) и направление, откуда дует ветер: С - северный, СВ - северо-восточный, В - восточный, ЮВ - юго-восточный, Ю - южный, ЮЗ - юго-западный, З - западный, СЗ - северо-западный.
Видимость - горизонтальная дальность видимости в метрах или километрах. При видимости от 1 до 10 км при отсутствии осадков обычно наблюдается дымка, при ухудшении видимости до 1 км и менее - туман. В сухую погоду видимость может ухудшаться дымом, пылью или мглою.
Явления - указаны атмосферные явления, наблюдавшиеся в срок или в последний час перед сроком; фигурными скобками обозначены явления, наблюдавшиеся между сроками (за 1-3 часа до срока); квадратными скобками обозначены град или гололедные отложения с указанием их диаметра в мм.
Облачность - указаны через наклонную черту общая и нижняя облачность в баллах и высота нижней границы облаков в метрах; квадратными скобками обозначены формы облаков: Ci - перистые, Cs - перисто-слоистые, Cc - перисто-кучевые, Ac - высококучевые, As - высокослоистые, Sc - слоисто-кучевые, Ns - слоисто-дождевые, Cu - кучевые, Cb - кучево-дождевые. Подробнее классификацию облаков см. в Атласе облаков (PDF).
T - Температура воздуха - температура, измеренная на высоте 2 м над землей.
Td - Температура точки росы - температура, при понижении до которой содержащийся в воздухе водяной пар достигнет насыщения.
f - Относительная влажность воздуха - влажноcть воздуха, измеренная на высоте 2 м над землей.
Te - Эффективная температура - температура, которую ощущает одетый по сезону человек в тени. Характеристика душности погоды. При расчете учитывается влияние влажности воздуха и скорости ветра на теплоощущения человека.
Tes - Эффективная температура на солнце - температура, которую ощущает человек, с поправкой на солнечный нагрев. Характеристика знойности погоды. Зависит от высоты солнца над горизонтом, облачности и скорости ветра. Ночью, в пасмурную погоду, а также при ветре 12 м/с и более поправка равна нулю.
P - Атмосферное давление - приведенное к уровню моря атмосферное давление.
Po - Атмосферное давление - измеренное на уровне метеостанции атмосферное давление.
Tmin - Минимальная температура - минимум температуры воздуха на высоте 2 м над землей.
Tmax - Максимальная температура - максимум температуры воздуха на высоте 2 м над землей.
R - Количество осадков - Количество выпавших осадков за период времени, мм. При наведении курсора мыши на число - период времени, за который выпало указанное количество осадков.
R24 - Количество осадков - Количество выпавших осадков за 24 часа, мм.
S - Снежный покров - Высота снежного покрова, см. При наведении курсора мыши на число - состояние снежного покрова и степень покрытия местности в баллах.